Time,TemperatureF,DewpointF,PressureIn,WindDirection,WindDirectionDegrees,WindSpeedMPH,WindSpeedGustMPH,Humidity,HourlyPrecipIn,Conditions,Clouds,dailyrainin,SoftwareType,DateUTC
2013-05-14 00:12:00,47.8,32.0,30.06,WNW,292,2.2,-999.0,54,-99.99,,,0.00,Acu-Link.com,2013-05-14 04:12:00,
2013-05-14 00:27:00,46.9,32.0,30.07,NW,315,3.7,-999.0,56,-99.99,,,0.00,Acu-Link.com,2013-05-14 04:27:00,
2013-05-14 00:42:00,45.9,32.8,30.07,West,270,1.7,-999.0,60,-99.99,,,0.00,Acu-Link.com,2013-05-14 04:42:00,
2013-05-14 00:58:00,45.0,32.4,30.06,SSW,202,2.7,-999.0,61,-99.99,,,0.00,Acu-Link.com,2013-05-14 04:58:00,
2013-05-14 01:13:00,44.4,33.0,30.08,NW,315,1.1,-999.0,64,-99.99,,,0.00,Acu-Link.com,2013-05-14 05:13:00,
2013-05-14 01:28:00,44.2,33.6,30.07,West,270,2.7,-999.0,66,-99.99,,,0.00,Acu-Link.com,2013-05-14 05:28:00,
2013-05-14 01:43:00,44.6,34.0,30.08,WNW,292,2.7,-999.0,66,-99.99,,,0.00,Acu-Link.com,2013-05-14 05:43:00,
2013-05-14 01:58:00,48.0,36.4,30.08,NNE,22,4.2,-999.0,64,-99.99,,,0.00,Acu-Link.com,2013-05-14 05:58:00,
2013-05-14 02:13:00,48.9,35.2,30.08,NE,45,4.2,-999.0,59,-99.99,,,0.00,Acu-Link.com,2013-05-14 06:13:00,
2013-05-14 02:28:00,49.3,36.0,30.07,NNE,22,3.7,-999.0,60,-99.99,,,0.00,Acu-Link.com,2013-05-14 06:28:00,
2013-05-14 02:43:00,49.1,35.8,30.07,East,90,3.7,-999.0,60,-99.99,,,0.00,Acu-Link.com,2013-05-14 06:43:00,
2013-05-14 02:58:00,49.5,35.8,30.09,NW,315,4.2,-999.0,59,-99.99,,,0.00,Acu-Link.com,2013-05-14 06:58:00,
2013-05-14 03:14:00,49.1,35.4,30.09,SW,225,2.7,-999.0,59,-99.99,,,0.00,Acu-Link.com,2013-05-14 07:14:00,
2013-05-14 03:29:00,47.1,34.4,30.09,NNE,22,1.1,-999.0,61,-99.99,,,0.00,Acu-Link.com,2013-05-14 07:29:00,
2013-05-14 03:44:00,44.4,33.8,30.09,North,0,1.7,-999.0,66,-99.99,,,0.00,Acu-Link.com,2013-05-14 07:44:00,
2013-05-14 03:59:00,47.3,35.4,30.09,ESE,112,2.7,-999.0,63,-99.99,,,0.00,Acu-Link.com,2013-05-14 07:59:00,
2013-05-14 04:14:00,47.8,35.0,30.08,NNW,337,3.7,-999.0,61,-99.99,,,0.00,Acu-Link.com,2013-05-14 08:14:00,
2013-05-14 04:30:00,48.0,33.9,30.08,South,180,4.2,-999.0,58,-99.99,,,0.00,Acu-Link.com,2013-05-14 08:30:00,
2013-05-14 04:45:00,49.5,35.3,30.08,West,270,4.2,-999.0,58,-99.99,,,0.00,Acu-Link.com,2013-05-14 08:45:00,
2013-05-14 05:00:00,48.4,33.9,30.08,South,180,3.2,-999.0,57,-99.99,,,0.00,Acu-Link.com,2013-05-14 09:00:00,
2013-05-14 05:15:00,48.2,33.7,30.08,NNW,337,3.2,-999.0,57,-99.99,,,0.00,Acu-Link.com,2013-05-14 09:15:00,
2013-05-14 05:30:00,45.7,33.8,30.10,SW,225,1.1,-999.0,63,-99.99,,,0.00,Acu-Link.com,2013-05-14 09:30:00,
2013-05-14 05:45:00,42.4,33.7,30.08,North,0,1.7,-999.0,71,-99.99,,,0.00,Acu-Link.com,2013-05-14 09:45:00,
2013-05-14 06:00:00,40.6,33.6,30.08,North,0,0.0,-999.0,76,-99.99,,,0.00,Acu-Link.com,2013-05-14 10:00:00,
2013-05-14 06:15:00,40.3,34.3,30.08,North,0,1.7,-999.0,79,-99.99,,,0.00,Acu-Link.com,2013-05-14 10:15:00,
2013-05-14 06:31:00,40.8,35.4,30.08,NNE,22,1.7,-999.0,81,-99.99,,,0.00,Acu-Link.com,2013-05-14 10:31:00,
2013-05-14 06:46:00,41.9,37.1,30.09,West,270,2.7,-999.0,83,-99.99,,,0.00,Acu-Link.com,2013-05-14 10:46:00,
2013-05-14 07:01:00,42.8,37.7,30.09,West,270,1.7,-999.0,82,-99.99,,,0.00,Acu-Link.com,2013-05-14 11:01:00,
2013-05-14 07:16:00,45.0,36.9,30.10,NW,315,5.3,-999.0,73,-99.99,,,0.00,Acu-Link.com,2013-05-14 11:16:00,
2013-05-14 07:31:00,46.2,36.6,30.10,West,270,4.2,-999.0,69,-99.99,,,0.00,Acu-Link.com,2013-05-14 11:31:00,
2013-05-14 07:46:00,47.7,36.1,30.10,NW,315,4.7,-999.0,64,-99.99,,,0.00,Acu-Link.com,2013-05-14 11:46:00,
2013-05-14 08:01:00,48.7,35.4,30.10,West,270,3.7,-999.0,60,-99.99,,,0.00,Acu-Link.com,2013-05-14 12:01:00,
2013-05-14 08:16:00,50.0,34.0,30.10,WNW,292,5.3,-999.0,54,-99.99,,,0.00,Acu-Link.com,2013-05-14 12:16:00,
2013-05-14 08:31:00,52.5,34.4,30.11,North,0,3.7,-999.0,50,-99.99,,,0.00,Acu-Link.com,2013-05-14 12:31:00,
2013-05-14 08:47:00,55.2,34.8,30.12,West,270,5.8,-999.0,46,-99.99,,,0.00,Acu-Link.com,2013-05-14 12:47:00,
2013-05-14 09:02:00,57.6,35.9,30.11,SE,135,3.7,-999.0,44,-99.99,,,0.00,Acu-Link.com,2013-05-14 13:02:00,
2013-05-14 09:17:00,55.6,34.0,30.11,NNW,337,4.2,-999.0,44,-99.99,,,0.00,Acu-Link.com,2013-05-14 13:17:00,
2013-05-14 09:32:00,56.7,35.0,30.12,NNW,337,2.2,-999.0,44,-99.99,,,0.00,Acu-Link.com,2013-05-14 13:32:00,
2013-05-14 09:47:00,56.5,34.3,30.11,West,270,4.2,-999.0,43,-99.99,,,0.00,Acu-Link.com,2013-05-14 13:47:00,
2013-05-14 10:02:00,59.0,36.5,30.11,NNE,22,3.2,-999.0,43,-99.99,,,0.00,Acu-Link.com,2013-05-14 14:02:00,
2013-05-14 10:17:00,59.4,36.3,30.12,West,270,2.2,-999.0,42,-99.99,,,0.00,Acu-Link.com,2013-05-14 14:17:00,
2013-05-14 10:32:00,60.1,36.3,30.12,East,90,3.2,-999.0,41,-99.99,,,0.00,Acu-Link.com,2013-05-14 14:32:00,
2013-05-14 10:47:00,61.2,36.7,30.12,NNW,337,3.7,-999.0,40,-99.99,,,0.00,Acu-Link.com,2013-05-14 14:47:00,
2013-05-14 11:03:00,61.2,37.9,30.12,NNW,337,4.2,-999.0,42,-99.99,,,0.00,Acu-Link.com,2013-05-14 15:03:00,
2013-05-14 11:18:00,59.9,36.1,30.12,NE,45,3.7,-999.0,41,-99.99,,,0.00,Acu-Link.com,2013-05-14 15:18:00,
2013-05-14 11:33:00,60.6,37.4,30.12,SSW,202,3.7,-999.0,42,-99.99,,,0.00,Acu-Link.com,2013-05-14 15:33:00,
2013-05-14 11:48:00,61.2,37.3,30.11,SSW,202,3.2,-999.0,41,-99.99,,,0.00,Acu-Link.com,2013-05-14 15:48:00,
2013-05-14 12:03:00,63.3,39.8,30.11,West,270,1.7,-999.0,42,-99.99,,,0.00,Acu-Link.com,2013-05-14 16:03:00,
2013-05-14 12:18:00,61.5,36.3,30.10,NNW,337,3.2,-999.0,39,-99.99,,,0.00,Acu-Link.com,2013-05-14 16:18:00,
2013-05-14 12:33:00,63.9,39.7,30.10,NNE,22,1.1,-999.0,41,-99.99,,,0.00,Acu-Link.com,2013-05-14 16:33:00,
2013-05-14 12:48:00,62.8,38.1,30.09,NNE,22,3.7,-999.0,40,-99.99,,,0.00,Acu-Link.com,2013-05-14 16:48:00,
2013-05-14 13:03:00,62.6,38.6,30.09,North,0,2.7,-999.0,41,-99.99,,,0.00,Acu-Link.com,2013-05-14 17:03:00,
2013-05-14 13:19:00,64.0,39.2,30.09,NNE,22,4.7,-999.0,40,-99.99,,,0.00,Acu-Link.com,2013-05-14 17:19:00,
2013-05-14 13:34:00,64.6,39.7,30.08,ENE,67,2.7,-999.0,40,-99.99,,,0.00,Acu-Link.com,2013-05-14 17:34:00,
2013-05-14 13:49:00,63.9,39.1,30.07,South,180,2.2,-999.0,40,-99.99,,,0.00,Acu-Link.com,2013-05-14 17:49:00,
2013-05-14 14:04:00,65.7,41.4,30.07,ENE,67,2.2,-999.0,41,-99.99,,,0.00,Acu-Link.com,2013-05-14 18:04:00,
2013-05-14 14:19:00,64.4,39.6,30.07,North,0,3.7,-999.0,40,-99.99,,,0.00,Acu-Link.com,2013-05-14 18:19:00,
2013-05-14 14:34:00,66.0,41.0,30.07,ENE,67,1.1,-999.0,40,-99.99,,,0.00,Acu-Link.com,2013-05-14 18:34:00,
2013-05-14 14:49:00,65.7,35.8,30.07,WNW,292,3.2,-999.0,33,-99.99,,,0.00,Acu-Link.com,2013-05-14 18:49:00,
2013-05-14 15:04:00,66.9,36.1,30.06,WNW,292,5.3,-999.0,32,-99.99,,,0.00,Acu-Link.com,2013-05-14 19:04:00,
2013-05-14 15:19:00,66.4,34.0,30.05,West,270,3.2,-999.0,30,-99.99,,,0.00,Acu-Link.com,2013-05-14 19:19:00,
2013-05-14 15:35:00,67.3,34.0,30.04,West,270,2.7,-999.0,29,-99.99,,,0.00,Acu-Link.com,2013-05-14 19:35:00,
2013-05-14 15:50:00,66.6,37.4,30.02,SW,225,3.7,-999.0,34,-99.99,,,0.00,Acu-Link.com,2013-05-14 19:50:00,
2013-05-14 16:05:00,68.0,37.8,30.03,SSE,157,2.7,-999.0,33,-99.99,,,0.00,Acu-Link.com,2013-05-14 20:05:00,
2013-05-14 16:20:00,63.3,32.2,30.03,South,180,3.2,-999.0,31,-99.99,,,0.00,Acu-Link.com,2013-05-14 20:20:00,
2013-05-14 16:35:00,65.8,37.4,30.02,WSW,247,2.2,-999.0,35,-99.99,,,0.00,Acu-Link.com,2013-05-14 20:35:00,
2013-05-14 16:50:00,63.3,33.7,30.03,West,270,2.2,-999.0,33,-99.99,,,0.00,Acu-Link.com,2013-05-14 20:50:00,
2013-05-14 17:05:00,63.7,36.9,30.04,ENE,67,3.2,-999.0,37,-99.99,,,0.00,Acu-Link.com,2013-05-14 21:05:00,
2013-05-14 17:20:00,62.1,41.6,30.03,WNW,292,3.2,-999.0,47,-99.99,,,0.00,Acu-Link.com,2013-05-14 21:20:00,
2013-05-14 17:35:00,62.1,41.1,30.02,West,270,1.1,-999.0,46,-99.99,,,0.00,Acu-Link.com,2013-05-14 21:35:00,
2013-05-14 17:50:00,59.7,39.4,30.02,South,180,2.7,-999.0,47,-99.99,,,0.00,Acu-Link.com,2013-05-14 21:50:00,
2013-05-14 18:06:00,61.7,41.3,30.02,East,90,1.7,-999.0,47,-99.99,,,0.00,Acu-Link.com,2013-05-14 22:06:00,
2013-05-14 18:21:00,62.1,38.7,30.01,NNE,22,1.7,-999.0,42,-99.99,,,0.00,Acu-Link.com,2013-05-14 22:21:00,
2013-05-14 18:36:00,62.6,40.4,30.01,WSW,247,3.2,-999.0,44,-99.99,,,0.00,Acu-Link.com,2013-05-14 22:36:00,
2013-05-14 18:51:00,61.0,40.1,30.01,SW,225,3.2,-999.0,46,-99.99,,,0.00,Acu-Link.com,2013-05-14 22:51:00,
2013-05-14 19:06:00,59.5,40.3,30.02,South,180,3.2,-999.0,49,-99.99,,,0.00,Acu-Link.com,2013-05-14 23:06:00,
2013-05-14 19:21:00,57.7,39.7,30.02,East,90,3.2,-999.0,51,-99.99,,,0.00,Acu-Link.com,2013-05-14 23:21:00,
2013-05-14 19:36:00,55.6,40.6,30.02,NE,45,2.7,-999.0,57,-99.99,,,0.00,Acu-Link.com,2013-05-14 23:36:00,
2013-05-14 19:51:00,53.6,41.3,30.02,SSE,157,1.7,-999.0,63,-99.99,,,0.00,Acu-Link.com,2013-05-14 23:51:00,
2013-05-14 20:06:00,52.7,42.1,30.02,SSE,157,1.7,-999.0,67,-99.99,,,0.00,Acu-Link.com,2013-05-15 00:06:00,
2013-05-14 20:22:00,52.2,42.7,30.01,South,180,2.2,-999.0,70,-99.99,,,0.00,Acu-Link.com,2013-05-15 00:22:00,
2013-05-14 20:37:00,52.5,43.0,30.02,SSW,202,3.2,-999.0,70,-99.99,,,0.00,Acu-Link.com,2013-05-15 00:37:00,
2013-05-14 20:52:00,52.9,43.4,30.02,WSW,247,3.7,-999.0,70,-99.99,,,0.00,Acu-Link.com,2013-05-15 00:52:00,
2013-05-14 21:07:00,53.4,43.9,30.02,South,180,3.2,-999.0,70,-99.99,,,0.00,Acu-Link.com,2013-05-15 01:07:00,
2013-05-14 21:22:00,53.4,43.9,30.02,South,180,2.2,-999.0,70,-99.99,,,0.00,Acu-Link.com,2013-05-15 01:22:00,
2013-05-14 21:37:00,53.6,44.1,30.03,SSW,202,1.7,-999.0,70,-99.99,,,0.00,Acu-Link.com,2013-05-15 01:37:00,
2013-05-14 21:52:00,54.0,44.4,30.03,SW,225,3.7,-999.0,70,-99.99,,,0.00,Acu-Link.com,2013-05-15 01:52:00,
2013-05-14 22:07:00,54.0,44.4,30.04,SW,225,3.2,-999.0,70,-99.99,,,0.00,Acu-Link.com,2013-05-15 02:07:00,
2013-05-14 22:22:00,54.3,44.7,30.05,SSW,202,2.7,-999.0,70,-99.99,,,0.00,Acu-Link.com,2013-05-15 02:22:00,
2013-05-14 22:38:00,54.3,44.7,30.06,SW,225,3.2,-999.0,70,-99.99,,,0.00,Acu-Link.com,2013-05-15 02:38:00,
2013-05-14 22:53:00,54.1,44.5,30.06,SSW,202,2.2,-999.0,70,-99.99,,,0.00,Acu-Link.com,2013-05-15 02:53:00,
2013-05-14 23:08:00,54.0,44.8,30.05,South,180,2.7,-999.0,71,-99.99,,,0.00,Acu-Link.com,2013-05-15 03:08:00,
2013-05-14 23:23:00,53.6,44.4,30.05,SSW,202,3.2,-999.0,71,-99.99,,,0.00,Acu-Link.com,2013-05-15 03:23:00,
2013-05-14 23:38:00,53.2,44.0,30.04,South,180,4.2,-999.0,71,-99.99,,,0.00,Acu-Link.com,2013-05-15 03:38:00,
2013-05-14 23:53:00,53.1,43.9,30.04,ESE,112,2.7,-999.0,71,-99.99,,,0.00,Acu-Link.com,2013-05-15 03:53:00,